Location: Barcelona
(41.3830°N, 2.1830°E)
Time: 01:49:31
(UTC+02:00)

ISS - Pass Details

Date: 16 July 2019
Orbit: 409 x 418 km, 51.6° (Epoch: 23 July)

Event Time Altitude Azimuth Distance (km) Brightness Sun altitude
Exits shadow 01:30:24 - 294° (WNW) 1,543 -0.6 -26.9°
Reaches altitude 10° 01:30:36 10° 296° (WNW) 1,484 -0.6 -26.9°
Maximum altitude 01:33:04 19° 344° (NNW) 1,056 -1.0 -26.9°
Drops below altitude 10° 01:35:33 10° 32° (NNE) 1,483 -0.3 -27.0°
Sets 01:38:03 0° 51° (NE) 2,345 0.5 -27.0°
